Theta_e
287 287 286 286 286 286 285 284 284 283 282 282 281 281 281 281 281 281 281 281 280 281 281 281 281 282 281 282 282 282 282 282 280 282 284 286 285 285 286 287 288 288 289
287 286 286 286 285 285 284 283 283 282 282 281 281 280 280 279 280 279 279 279 279 279 279 279 279 279 279 280 280 280 280 281 279 278 281 282 282 284 285 285 285 286 287
286 286 285 285 284 284 284 283 283 281 280 279 279 278 278 278 277 278 278 278 278 278 278 278 278 278 277 278 278 277 278 278 279 278 278 281 282 283 283 283 283 285 285
285 285 284 284 284 284 283 282 281 279 279 278 278 277 276 276 276 276 277 278 278 278 278 277 277 276 276 275 275 275 276 276 276 276 277 277 278 280 281 280 281 284 284
284 284 284 285 285 283 282 280 278 278 277 276 276 275 275 275 275 276 277 277 277 276 276 276 276 276 275 275 275 275 275 274 274 274 274 275 275 276 275 278 277 278 280
284 284 284 284 282 281 280 278 277 276 275 275 274 274 273 273 274 276 277 276 276 275 274 275 275 275 274 275 275 276 276 274 272 273 273 272 272 274 275 275 275 275 274
283 284 283 283 281 280 278 276 275 274 274 273 273 272 272 272 273 275 276 275 275 274 273 273 273 273 274 273 274 275 275 276 276 275 273 273 273 274 274 274 274 274 275
282 282 282 281 279 278 275 274 274 273 272 272 272 271 271 271 273 274 275 275 274 273 273 273 272 273 273 273 273 273 274 274 275 275 275 275 276 277 276 276 276 276 277
281 281 281 279 277 275 274 273 273 272 271 271 271 270 269 270 271 273 274 273 273 273 273 273 273 273 275 276 275 274 275 276 278 279 279 280 280 280 280 278 276 275 274
281 281 280 277 274 273 273 271 272 271 270 270 270 269 268 267 270 272 273 273 272 273 274 274 276 275 277 277 276 275 274 275 276 277 277 278 279 278 279 278 277 273 273
280 278 276 274 272 272 271 270 269 269 268 268 267 268 267 268 268 271 273 273 273 273 274 274 275 276 277 279 278 276 275 276 276 275 275 276 277 278 278 278 278 276 274
276 275 273 270 271 269 268 268 267 267 266 266 266 267 269 269 269 271 273 274 275 274 273 275 275 277 276 276 275 275 275 275 272 271 271 272 274 275 277 277 277 278 278
272 271 269 268 268 268 267 267 267 267 267 268 267 268 268 269 270 271 273 274 275 275 275 275 274 273 272 271 272 272 271 269 269 268 268 269 271 273 274 274 275 276 276
270 269 267 266 267 266 268 268 268 268 268 267 267 267 268 269 270 271 272 273 275 275 274 271 270 270 270 269 268 269 268 268 267 267 268 270 271 271 271 273 272 273 272
269 268 269 268 267 268 268 269 268 269 268 267 267 268 268 269 271 272 274 274 275 274 271 268 266 266 266 266 267 267 267 267 267 267 267 268 268 270 270 272 272 273 271
269 268 269 269 268 268 268 267 269 270 271 272 273 273 272 273 274 273 274 275 274 272 268 264 264 264 264 264 265 265 266 266 266 266 266 267 268 268 269 271 273 272 271
269 269 268 266 267 267 266 265 265 267 268 269 270 271 272 273 272 273 273 274 269 268 263 263 263 263 263 264 264 264 264 266 266 266 266 267 267 268 268 269 270 272 271
264 262 266 267 266 265 265 264 263 262 263 264 265 266 267 269 271 271 272 269 263 263 261 261 261 262 263 263 263 263 264 265 265 266 266 267 267 267 267 268 269 269 270
263 264 264 264 263 263 262 262 261 261 261 260 261 262 263 265 267 269 267 262 260 259 261 260 261 261 261 262 263 263 263 264 265 265 266 267 267 267 267 267 268 268 269
260 258 260 261 261 260 261 260 260 260 260 259 260 260 261 259 261 262 261 260 259 259 260 259 260 260 260 261 262 262 263 263 264 265 266 268 268 267 266 267 268 268 269
259 259 258 259 259 260 260 259 259 259 259 259 259 260 262 259 262 261 260 259 259 259 259 259 259 259 260 260 260 261 262 263 264 265 266 267 267 266 267 268 268 269 269
257 258 258 257 258 258 258 259 259 258 258 258 259 259 263 262 260 259 259 258 258 258 258 258 258 259 259 259 259 260 260 261 263 265 265 266 266 266 267 267 267 267 268
257 257 257 257 257 257 257 257 257 258 258 258 258 258 258 258 258 257 257 257 257 256 257 257 257 257 258 259 260 260 259 260 262 264 264 266 266 266 266 266 266 266 266
258 257 257 257 257 256 256 256 256 255 255 256 257 257 257 257 257 257 256 256 256 256 256 256 256 256 256 256 258 260 260 261 262 263 267 265 265 265 265 265 265 265 265
257 257 257 257 257 257 256 256 256 256 256 256 257 257 257 257 256 256 256 255 254 254 255 255 255 255 256 255 256 256 258 259 261 265 267 266 265 265 265 265 264 265 264
258 257 257 257 257 257 256 256 256 257 257 257 257 257 257 257 256 256 255 254 254 254 254 255 255 255 255 256 257 258 259 263 264 268 266 266 265 265 265 265 264 265 264
Wind_Speed
10 10 10 9 8 7 7 7 7 6 5 4 3 3 4 5 5 5 6 6 7 8 8 9 10 10 8 9 9 9 10 10 13 13 12 14 18 16 13 12 12 13 12
11 10 10 9 8 8 7 7 6 5 4 3 2 3 3 4 5 6 7 7 9 9 10 10 11 9 12 11 9 12 12 13 12 19 16 12 16 16 17 17 12 11 13
12 11 10 10 9 8 7 7 5 5 4 3 1 3 4 5 6 5 7 8 9 9 10 11 12 12 13 11 12 12 12 12 12 13 17 12 12 12 15 15 15 14 11
12 12 11 11 10 9 8 7 5 4 3 1 1 1 3 4 5 6 8 9 9 9 10 11 12 13 13 14 14 15 14 13 13 12 13 14 12 13 12 13 13 11 11
13 13 12 11 10 9 8 7 5 5 4 3 2 2 3 4 3 8 9 10 11 12 11 11 11 13 19 18 12 14 16 13 12 12 13 14 13 11 13 11 14 13 14
14 14 11 10 10 9 8 7 6 5 4 3 2 2 4 3 7 10 11 10 11 12 12 12 13 15 15 20 21 23 20 15 15 12 13 14 17 14 12 11 12 13 15
11 9 9 9 9 9 8 7 6 5 4 3 4 3 4 5 8 11 13 10 11 11 12 12 13 11 15 15 18 22 21 23 24 17 17 16 17 16 15 15 15 14 14
10 9 8 9 9 8 8 7 5 4 4 4 5 4 5 5 10 12 14 11 10 11 11 13 14 16 15 17 17 17 18 17 18 14 17 17 17 16 17 16 17 17 15
11 10 10 10 9 9 8 7 5 4 4 5 4 4 5 6 10 12 12 10 9 11 11 13 14 17 22 25 19 18 17 17 20 30 31 32 32 31 26 14 12 13 14
10 11 10 10 9 9 8 7 4 4 5 4 5 4 7 8 10 11 11 8 10 10 12 14 17 16 26 27 18 18 19 16 15 17 16 21 24 21 29 19 13 14 13
6 7 8 9 9 8 7 5 5 5 5 5 6 5 7 8 8 11 12 8 8 9 10 10 10 23 27 27 29 17 18 22 19 14 13 12 13 13 11 12 14 13 13
7 8 9 8 7 6 7 6 5 5 6 6 6 5 6 7 9 10 12 13 15 10 11 10 12 25 30 30 24 26 26 23 10 10 10 10 10 10 10 11 14 13 13
8 8 8 8 7 7 8 7 6 7 6 6 5 5 5 4 5 10 13 15 16 11 10 14 23 24 23 18 21 23 16 9 10 10 10 11 11 11 14 13 14 15 15
8 8 8 8 9 8 6 6 6 6 6 6 6 6 5 5 5 5 7 9 12 11 9 7 14 15 15 14 11 12 9 9 10 10 10 11 11 10 10 10 11 10 11
7 7 8 6 7 7 7 7 7 7 7 6 6 6 6 6 6 10 11 8 8 9 9 7 8 8 9 9 9 10 10 10 10 10 10 10 11 11 11 10 10 10 11
7 6 5 5 6 5 6 6 12 14 14 16 17 13 8 14 13 14 15 16 13 14 6 6 7 8 9 9 10 11 10 11 11 11 10 10 11 11 11 11 10 10 11
5 5 4 5 5 5 5 6 7 6 10 13 14 15 16 13 13 15 14 15 10 9 4 5 6 7 8 9 9 10 11 11 12 10 10 11 11 11 13 11 11 11 11
3 1 4 4 5 5 6 6 6 6 7 5 7 9 11 14 15 12 13 7 4 3 4 6 6 7 8 9 9 10 10 10 10 10 11 10 10 11 12 11 11 12 12
3 4 4 4 5 5 5 6 6 7 7 7 6 7 7 10 11 14 6 4 4 5 5 6 6 7 8 8 9 9 11 10 11 11 11 10 10 10 11 11 12 16 15
3 5 4 4 4 5 5 6 6 7 7 7 6 7 4 3 4 5 4 4 5 5 5 6 7 7 8 8 9 9 9 10 10 10 11 11 10 10 11 12 11 12 12
3 3 4 5 6 5 6 7 7 7 7 7 7 7 11 7 8 6 5 5 5 5 6 6 7 7 7 8 8 9 9 10 10 11 11 10 10 10 10 11 11 11 11
2 3 3 4 5 5 6 6 7 8 8 8 7 7 13 7 5 6 6 6 5 6 5 6 7 7 7 8 8 8 9 10 10 10 11 11 10 10 10 10 10 10 10
2 3 3 4 5 6 6 6 7 8 8 8 7 7 5 5 6 6 6 6 5 6 6 6 7 7 7 7 8 8 9 9 10 10 12 10 9 9 9 9 9 9 9
2 4 5 5 5 5 6 7 7 8 8 8 7 7 6 6 6 6 6 6 6 6 6 6 6 9 8 8 8 8 8 9 9 11 13 8 8 9 8 8 8 10 9
3 4 4 5 6 6 6 7 7 7 7 7 6 6 6 6 6 6 6 5 6 6 7 7 6 8 10 11 12 14 13 16 14 15 6 7 8 9 7 6 8 8 9
4 5 5 5 6 6 6 7 7 7 7 6 6 6 6 6 6 6 6 6 6 6 8 7 8 11 12 11 13 13 14 17 15 10 4 5 6 6 6 7 9 6 8
Wind_Direction
166 155 151 149 143 135 125 122 121 121 114 95 70 43 19 7 357 343 336 327 326 321 320 317 312 311 305 304 301 294 289 288 284 289 289 295 295 297 293 291 290 286 285
172 168 163 157 155 147 142 136 145 137 133 121 84 44 9 354 346 335 330 324 321 322 321 316 312 315 306 304 299 296 291 288 286 288 286 289 288 294 294 292 286 284 284
177 177 174 173 171 164 159 152 151 149 139 125 91 25 355 337 325 314 316 314 314 312 313 312 311 312 306 307 304 300 298 297 293 287 290 292 292 291 289 290 292 286 282
187 188 186 187 183 175 168 160 159 150 156 159 164 308 302 308 302 317 314 313 313 313 312 311 310 307 306 309 304 299 296 294 292 288 287 296 297 300 293 289 284 281 289
191 196 200 192 185 176 172 168 164 175 180 196 220 249 292 304 325 323 319 317 316 314 312 309 305 307 300 294 293 296 299 297 294 290 287 291 297 304 299 304 295 298 290
196 204 200 190 183 184 177 175 184 183 195 197 229 269 298 300 315 313 314 311 308 305 306 308 306 303 299 302 297 295 293 292 287 290 293 287 289 294 297 292 292 295 295
196 201 190 184 186 189 181 179 194 199 197 228 240 259 277 295 300 309 313 302 301 302 306 305 303 301 302 299 299 296 292 286 280 281 282 284 288 290 292 288 282 279 282
197 195 184 183 188 187 188 193 197 201 222 244 247 248 271 289 303 311 308 301 299 297 299 297 295 298 298 298 293 284 278 276 275 271 269 269 270 272 268 270 274 275 273
202 199 189 184 184 187 194 195 200 209 228 245 246 265 280 288 298 303 306 301 295 296 295 291 290 292 295 293 284 282 280 273 269 269 269 272 273 274 275 276 275 279 280
203 202 184 178 172 177 187 189 196 210 233 241 247 259 272 277 287 294 299 291 299 304 298 290 285 289 297 301 294 286 280 284 287 281 277 274 273 269 272 271 278 276 278
155 157 165 170 170 175 173 186 194 213 238 245 258 262 262 263 278 287 290 293 294 299 299 301 299 302 304 309 310 308 303 307 308 303 300 294 285 273 263 258 258 261 267
157 165 165 163 169 170 178 189 205 215 234 246 255 263 247 255 261 279 292 293 301 301 297 298 304 315 319 313 314 309 308 314 312 300 298 293 292 291 287 285 280 274 266
161 165 163 164 177 176 186 201 210 214 230 243 244 255 259 262 276 284 292 295 298 295 298 309 324 317 319 315 315 319 325 314 309 304 301 298 299 301 301 291 283 280 279
170 170 170 181 187 193 203 210 219 223 229 233 238 249 262 273 273 291 287 279 291 306 324 324 319 324 318 313 318 329 324 317 312 302 302 303 299 294 289 287 285 282 278
173 177 185 196 199 203 219 222 227 233 231 232 235 244 262 269 274 271 291 300 303 325 342 328 324 325 323 324 326 325 324 322 315 310 307 304 300 297 295 288 278 275 271
175 183 195 202 205 220 232 242 241 245 243 245 257 261 250 256 274 287 289 299 335 337 328 309 312 315 314 321 324 323 322 321 319 314 303 303 303 302 301 301 291 282 279
183 182 193 213 220 228 234 246 259 232 256 264 264 265 266 266 279 283 292 300 352 347 290 298 300 305 308 315 318 318 314 313 310 305 306 306 305 302 305 302 300 292 285
180 191 218 224 231 235 237 244 250 257 266 258 250 271 273 269 268 280 287 332 308 292 275 286 292 297 302 307 311 309 306 306 308 308 305 302 306 303 304 301 299 298 296
214 231 231 238 239 245 245 243 246 250 253 260 280 268 262 274 273 272 302 249 261 267 274 281 284 289 293 297 300 301 303 303 306 303 305 306 310 307 302 299 296 298 296
263 267 265 264 252 245 245 248 251 250 254 255 254 259 260 245 241 233 241 245 252 256 265 270 277 282 286 290 295 299 300 305 307 307 308 312 314 308 303 302 302 304 304
269 272 268 266 262 261 260 256 256 255 254 256 258 254 239 233 253 244 256 252 254 264 270 274 281 285 284 287 291 295 300 301 301 303 306 318 315 310 307 306 306 310 311
268 277 269 267 274 267 265 268 268 265 261 260 262 258 265 271 253 255 255 256 258 259 265 272 278 281 281 285 289 295 297 295 299 305 307 315 313 312 313 314 317 320 321
241 266 270 268 267 274 272 269 271 269 267 265 264 263 252 244 244 247 253 260 259 260 259 259 267 274 276 275 278 283 286 286 295 300 298 314 314 317 320 322 325 327 329
278 274 277 282 280 276 271 271 271 263 264 266 262 258 255 252 250 254 258 261 262 265 264 260 258 267 281 282 287 287 281 281 289 291 300 310 314 321 327 329 333 336 337
258 269 277 277 279 280 281 276 272 268 265 262 260 257 259 259 262 261 262 262 265 269 270 267 268 274 278 279 280 282 284 292 289 292 294 308 314 320 330 332 341 347 355
277 272 273 283 279 279 279 280 277 274 271 269 265 262 263 264 265 268 266 265 268 270 275 275 275 277 281 283 281 285 291 297 301 285 295 314 316 330 338 344 349 355 359